Погода в Быкове

Россия / Рязанская область     54°15′42″N   40°07′50″E
темп.,
°C
ветер,
м/с
пор.,
м/с
влажн.,
%
обл.,
%
осадки,
мм/ч
давл.,
гПа
погр.,
м
12 апреля, пн
пн1200:00+5всв4870100 0.0 1032155
03:00+4св51269100 0.0 1033252
06:00+4всв51469100 0.0 1032320
09:00+8всв71276100 0.0 1031443
12:00+12в7971100 0.0 1031645
15:00+15в6964100 0.0 1030785
18:00+15в5107095 0.0 1028330
21:00+11в5138786 0.0 1029266
13 апреля, вт
вт1300:00+10вюв4138898 0.0 1028221
03:00+9юв4118797 0.0 1028177
06:00+8юв41180100 0.0 1028180
09:00+14ююв6105176 0.0 1028381
12:00+18ююв683734 0.0 1027800
15:00+20ююв682815 0.0 10261674
18:00+17юв484498 0.0 1025158
21:00+12юв412580 0.0 1026196
14 апреля, ср
ср1400:00+10юв412621 0.0 1025196
03:00+9юв497036 0.0 1024143
06:00+8юв4975100 0.0 1024152
09:00+13ююв595681 0.0 1023350
12:00+17юв5739100 0.0 1022881
15:00+19юв673296 0.0 10201509
18:00+17юв364432 0.0 1019121
21:00+12юв4656100 0.0 101983
15 апреля, чт
чт1500:00+10ююв3663100 0.0 101994
03:00+9ююв346499 0.0 101941
06:00+9юв336794 0.0 101939
09:00+13юв355693 0.0 1018256
12:00+18юв344251 0.0 1017901
15:00+20юв333592 0.0 10161968
18:00+17в3345100 0.0 101636
21:00+13всв465781 0.0 101677
16 апреля, пт
пт1600:00+11всв476485 0.0 1016106
03:00+10вюв3471100 0.0 101658
06:00+9всв477794 0.2 1016116
09:00+13в486198 0.3 1017355
12:00+17всв5649100 0.0 1018935
15:00+18всв5547100 0.0 10181537
18:00+17всв61255100 0.1 1018448
21:00+13всв7146799 1.1 1020631